Regional Weather Roundup
Issued by NWS

Home | Current Version | Previous Version | Text Only | Print | Product List | Glossary On
Versions: 1 2 3 4 5 6 7 8 9 10 11 12 13 14 15 16 17 18 19 20 21 22 23 24 25 26 27 28
000
ASUS45 KCYS 230710
RWRWY

WYOMING REGIONAL WEATHER ROUNDUP
NATIONAL WEATHER SERVICE CHEYENNE WY
100 AM MDT MON OCT 23 2017

NOTE:  "FAIR" INDICATES FEW OR NO CLOUDS BELOW 12,000 FEET
WITH NO SIGNIFICANT WEATHER AND/OR OBSTRUCTIONS TO VISIBILITY.

WYZ001-230800-
YELLOWSTONE NATIONAL PARK

CITY           SKY/WX    TMP DP  RH WIND       PRES   REMARKS
LK YELLOWSTONE   N/A     32  23  69 VRB7      30.39R WCI  26
W YELLOWSTONE  NOT AVBL

$$
WYZ002>013-054>058-071-098>099-230800-
NORTHERN WYOMING

CITY           SKY/WX    TMP DP  RH WIND       PRES   REMARKS
JACKSON        FAIR      46  31  55 W17G25    30.36R
CODY           FAIR      41  26  55 CALM      30.24R
GREYBULL       FAIR      47  25  42 W13       30.20R
WORLAND        FAIR      47  28  47 VRB6      30.22R
SHERIDAN       FAIR      47  25  42 NW23      30.18R
BUFFALO        LGT RAIN  47  21  35 N29G43    30.18R
GILLETTE       FAIR      47  23  38 NW23G31   30.16R
HULETT         FAIR      50  21  32 NW15G25   30.12R
NEWCASTLE      FAIR      48  21  34 NW20G26   30.10F

$$
WYZ014>020-022>026-101>103-230800-
CENTRAL WYOMING

CITY           SKY/WX    TMP DP  RH WIND       PRES   REMARKS
BIG PINEY      FAIR      47  30  51 NW17G28   30.37R
PINEDALE       CLOUDY    41  32  70 W8        30.39R
DUBOIS         CLOUDY    41  32  70 NW17G24   30.28R
LANDER         FAIR      49  29  46 NE6       30.20R
RIVERTON       FAIR      48  34  58 NW13      30.21R
CASPER         CLOUDY    47  32  56 CALM      30.22R
DOUGLAS        CLOUDY    48  34  58 N22G29    30.18R

$$
WYZ021-027>030-104>119-230800-
SOUTHERN WYOMING

CITY           SKY/WX    TMP DP  RH WIND       PRES   REMARKS
EVANSTON       FAIR      49  30  48 W17       30.45F
KEMMERER       FAIR      45  32  61 W22G29    30.40S
FORT BRIDGER   FAIR      50  30  46 W18G28    30.44R
ROCK SPRINGS   FAIR      46  27  47 W22       30.37S
DIXON          CLOUDY    49  29  46 W12       30.41S
RAWLINS        FAIR      48  28  46 W36G49    30.26S
SARATOGA       CLOUDY    48  30  49 W20G31    30.36S
LARAMIE        FAIR      47  27  45 W36G49    30.24F
CHEYENNE       FAIR      54  28  36 NW25G45   30.20R
TORRINGTON     MOCLDY    59  28  30 W17G24    30.07R
PINE BLUFFS    FAIR      54  28  37 W21G28    30.16S

$$




USA.gov is the U.S. government's official web portal to all federal, state and local government web resources and services.